Temperature
11 11 11 11 11 11 11 10 11 10 10 10 10 10 10 10 10 10 10 10 10 10 10 10 9 9 10 10 10 10 10 10 10 10 10 10 10 10 10 10 10 10 10
10 10 10 10 10 10 10 10 10 10 10 10 10 10 10 10 9 9 9 9 9 9 9 9 9 9 9 9 10 10 10 10 10 10 10 10 10 10 10 10 10 10 10
9 9 10 10 10 9 10 9 9 9 9 9 9 9 9 9 9 9 9 9 9 9 9 9 9 9 9 9 9 9 9 9 9 9 9 9 9 9 9 9 9 9 9
8 9 9 9 9 9 9 9 9 9 9 9 9 9 9 9 8 8 8 8 8 8 8 8 8 8 8 8 8 8 9 9 9 9 9 9 9 9 9 9 9 9 9
7 8 8 8 8 8 8 8 8 8 8 8 8 8 8 8 8 8 8 8 8 8 8 8 8 8 8 8 8 8 8 8 8 8 8 8 8 9 8 8 9 9 9
7 7 7 7 7 7 8 8 8 7 8 8 8 7 7 7 7 7 7 7 7 7 7 7 7 7 7 7 7 7 7 7 8 8 8 8 8 8 8 8 8 8 8
6 6 6 7 7 7 7 7 7 7 7 7 7 7 6 6 6 7 7 7 7 7 7 7 7 7 7 7 7 7 7 7 7 7 7 7 7 7 7 7 7 7 7
5 6 6 6 6 6 6 6 6 6 6 6 6 6 5 5 6 6 6 6 6 6 6 6 6 6 6 6 6 6 6 6 6 6 6 6 6 7 7 7 7 7 7
5 5 5 5 5 5 5 6 6 6 6 5 5 5 5 5 5 5 5 5 5 5 5 5 5 5 6 6 6 6 6 6 6 6 6 6 6 6 6 6 6 6 6
4 4 4 4 5 5 5 5 5 5 5 5 5 5 5 5 4 4 4 5 5 5 5 5 5 5 5 5 5 5 5 5 5 5 5 5 5 5 5 5 5 5 5
3 3 4 4 4 4 4 4 4 4 4 4 5 5 5 4 4 4 3 4 4 5 5 5 5 5 5 5 5 5 5 5 4 4 4 5 5 5 5 5 5 5 5
3 3 3 3 3 3 3 4 4 4 4 4 4 4 4 4 4 4 3 3 3 4 4 4 4 4 4 4 4 4 4 4 4 4 4 4 4 4 4 4 4 4 4
2 2 2 2 2 3 3 3 3 3 3 3 3 3 3 3 3 3 3 3 2 3 3 4 4 4 4 4 4 3 3 3 3 3 3 3 3 4 4 4 4 4 4
1 1 1 2 2 2 2 2 2 2 2 2 2 2 2 2 2 2 2 2 1 1 2 3 3 3 3 3 3 3 3 3 3 3 3 3 3 3 3 3 3 3 3
0 1 1 1 1 1 1 1 1 1 1 2 2 2 2 2 2 2 2 2 1 0 1 2 2 3 2 2 2 2 2 2 2 2 2 2 2 2 3 3 3 3 3
-0 -0 -0 0 0 0 0 0 1 1 1 1 1 1 1 1 1 1 1 1 1 0 0 1 2 2 2 1 1 1 1 1 1 2 2 2 2 2 2 2 2 2 2
-1 -1 -1 -1 -1 -0 -0 -0 -0 0 0 0 0 0 1 0 0 0 0 0 0 0 -0 1 1 1 1 1 1 1 1 1 1 1 1 1 1 1 1 1 1 1 2
-2 -2 -2 -2 -2 -1 -1 -1 -1 -1 -1 -0 -0 -0 -0 -0 -0 -0 -0 -0 -0 -0 -1 -0 0 0 0 0 0 -0 -0 -0 -0 0 0 0 1 1 1 1 1 1 1
-3 -2 -2 -2 -2 -2 -2 -2 -2 -1 -1 -1 -1 -1 -1 -1 -1 -1 -1 -1 -1 -1 -1 -1 -1 -1 -1 -1 -1 -1 -1 -1 -1 -1 -1 -0 -0 0 0 0 0 0 0
-3 -3 -3 -3 -3 -3 -3 -3 -2 -2 -2 -2 -2 -2 -2 -2 -2 -2 -2 -2 -2 -2 -2 -2 -2 -2 -2 -2 -2 -2 -1 -1 -1 -1 -1 -1 -1 -1 -0 -0 -0 -0 -0
-4 -4 -4 -4 -4 -4 -3 -3 -3 -3 -3 -3 -2 -2 -2 -2 -2 -2 -3 -2 -3 -3 -3 -3 -3 -3 -3 -2 -2 -2 -2 -2 -2 -2 -2 -2 -1 -1 -1 -1 -1 -1 -1
-5 -5 -5 -5 -4 -4 -4 -4 -4 -4 -4 -4 -3 -3 -3 -3 -3 -3 -3 -3 -3 -3 -3 -3 -3 -3 -3 -3 -3 -3 -3 -3 -3 -3 -3 -2 -2 -2 -2 -1 -2 -2 -2
-6 -6 -5 -5 -5 -5 -5 -5 -5 -5 -5 -5 -4 -4 -4 -4 -4 -4 -4 -4 -4 -4 -4 -4 -4 -4 -4 -4 -4 -4 -4 -4 -3 -3 -3 -3 -3 -3 -3 -3 -3 -3 -3
-7 -6 -6 -6 -6 -6 -6 -6 -6 -6 -6 -5 -5 -5 -5 -4 -4 -4 -4 -4 -4 -4 -4 -4 -4 -4 -4 -4 -4 -4 -4 -4 -4 -4 -4 -4 -3 -3 -3 -3 -3 -3 -3
-7 -7 -7 -7 -7 -7 -7 -7 -6 -6 -6 -6 -6 -5 -5 -5 -5 -5 -5 -5 -5 -5 -5 -5 -5 -5 -5 -5 -5 -5 -5 -5 -5 -4 -5 -5 -4 -4 -4 -4 -4 -4 -4
-8 -8 -8 -8 -8 -8 -7 -7 -7 -7 -7 -7 -6 -6 -6 -6 -6 -6 -6 -5 -5 -5 -5 -5 -5 -5 -5 -5 -5 -5 -5 -5 -6 -6 -5 -5 -5 -6 -5 -5 -4 -4 -4
Wind_Speed
5 5 6 6 6 6 6 6 6 6 7 7 7 7 7 8 8 8 7 8 8 8 8 9 9 9 9 9 9 9 9 9 8 8 7 6 6 6 6 6 5 5 5
5 5 5 5 5 5 5 6 5 5 5 5 5 6 6 7 8 7 7 7 7 7 7 7 7 8 8 8 8 8 7 7 7 7 7 7 6 5 4 4 4 4 4
6 5 4 4 3 4 5 6 6 6 5 4 4 4 5 6 6 7 7 7 6 6 6 6 6 7 7 7 7 7 6 6 6 6 6 6 5 5 5 4 3 3 3
6 5 4 3 4 5 5 4 4 3 3 2 2 2 3 4 5 6 6 6 6 6 6 5 5 6 5 5 5 5 6 5 5 5 5 5 5 5 4 4 4 4 3
5 5 4 3 4 5 4 3 3 2 3 2 2 2 2 3 3 4 5 5 6 6 5 5 4 5 5 4 4 4 4 5 5 4 4 5 5 4 4 4 3 4 4
5 4 3 3 4 3 2 2 3 2 2 2 2 2 2 2 3 3 3 4 5 5 4 4 4 3 3 3 3 2 3 3 3 3 3 3 3 3 3 3 3 2 3
4 4 3 3 3 2 2 3 2 3 2 2 3 2 3 2 2 1 2 3 3 4 4 4 5 4 3 2 2 2 2 1 2 2 2 2 2 2 2 2 3 3 2
4 3 3 3 2 2 2 2 3 2 1 2 2 3 1 1 2 1 1 1 1 3 3 3 4 3 3 2 2 2 2 2 1 1 1 1 1 1 2 2 2 3 3
3 3 3 3 2 2 2 2 3 3 3 1 1 3 3 2 1 2 1 0 0 1 1 2 2 3 2 1 0 1 2 3 3 2 2 2 2 3 3 3 3 4 4
2 3 3 3 3 3 2 2 2 2 4 3 1 0 1 3 2 1 2 1 1 1 1 1 2 3 3 2 2 3 3 4 4 4 4 4 4 4 5 4 5 5 5
2 2 3 3 3 3 3 3 2 1 2 3 3 1 1 1 1 3 2 2 2 2 2 2 3 4 4 4 4 4 4 5 5 5 6 6 6 6 6 6 6 6 6
2 3 3 3 3 3 3 4 4 3 3 3 3 2 2 2 2 2 3 2 3 3 3 3 3 5 5 5 5 5 5 6 6 7 7 8 8 7 7 7 8 7 7
2 4 4 4 4 4 4 4 4 4 4 4 4 3 3 3 2 2 3 2 2 2 2 3 4 6 6 6 6 6 6 7 8 8 9 9 9 9 8 8 8 8 8
4 4 5 5 5 5 5 5 4 5 5 5 6 5 3 4 3 3 3 3 2 2 3 4 3 6 6 6 7 7 7 8 9 9 10 10 10 10 9 9 10 10 10
4 5 5 5 5 6 6 5 5 6 6 6 6 6 5 4 3 3 4 4 5 4 5 5 4 4 6 6 7 7 8 9 11 11 11 10 10 11 11 11 11 11 11
4 4 4 5 5 5 6 5 5 5 6 6 6 6 6 5 4 4 4 4 5 5 6 4 4 3 6 7 9 9 9 10 11 11 11 11 11 12 12 12 12 12 12
4 4 5 5 5 5 5 5 6 6 7 7 7 7 8 6 5 5 4 4 5 5 7 5 4 4 5 5 7 9 9 9 9 11 11 11 11 12 12 13 13 12 12
4 5 5 5 6 6 6 7 7 7 8 8 8 8 8 7 7 6 5 6 6 5 6 7 5 4 5 6 6 6 7 9 9 11 12 12 12 11 12 12 12 12 12
5 5 5 6 7 7 7 7 8 8 8 9 8 9 9 8 8 7 7 7 6 6 5 6 6 4 4 4 4 5 6 6 9 10 11 12 12 12 12 12 12 12 13
5 5 6 6 7 7 7 8 8 8 8 8 8 8 9 10 10 9 8 8 7 7 6 6 6 5 5 4 4 4 5 4 5 8 10 11 12 13 13 12 12 13 13
6 6 6 6 6 6 7 8 8 8 8 8 8 8 9 11 12 11 9 8 8 7 7 7 6 5 5 4 5 4 6 4 5 5 5 7 8 8 10 11 12 12 12
5 5 6 6 6 6 9 11 9 7 8 8 8 8 9 10 12 15 16 14 12 10 9 8 7 8 7 6 5 5 5 4 5 4 4 6 6 6 7 9 11 12 13
5 6 6 6 7 8 10 11 12 8 7 8 8 7 8 8 10 8 12 14 14 16 15 10 10 10 8 7 7 7 7 6 7 4 4 6 4 6 7 10 12 13 13
5 6 7 7 7 8 11 11 11 8 7 7 8 8 8 8 8 8 8 10 10 11 13 11 11 10 9 9 9 9 8 6 5 4 5 5 5 5 7 9 13 13 13
6 6 6 6 7 8 11 11 10 6 6 8 8 8 9 8 12 13 10 10 10 10 13 16 16 15 15 15 12 6 6 6 6 5 4 4 4 4 4 6 11 13 13
6 6 7 6 7 8 11 11 11 6 7 7 7 7 10 11 12 13 9 9 11 10 8 8 10 11 11 12 14 10 8 8 5 5 5 5 3 2 3 4 6 8 10
Wind_Direction
98 94 90 88 83 84 84 78 76 77 79 80 83 86 85 84 85 80 76 82 90 92 93 93 90 85 83 83 82 83 81 78 79 81 85 88 87 86 89 86 88 83 78
101 102 95 89 88 92 94 92 85 85 83 83 78 80 85 89 88 85 81 82 87 93 94 97 94 89 85 82 80 79 82 78 77 76 74 75 79 83 85 92 86 89 88
97 104 103 96 94 104 101 92 83 81 81 78 75 75 82 87 90 89 89 86 83 84 90 97 97 91 89 85 82 80 80 80 77 74 72 72 75 72 67 72 83 89 94
98 99 103 101 100 102 100 99 93 90 84 83 80 68 73 85 89 93 96 93 87 82 79 85 95 92 91 90 87 85 81 80 78 73 73 75 75 67 59 63 62 60 56
103 99 104 99 108 99 95 110 94 108 110 93 91 71 71 79 84 92 94 98 96 90 83 76 80 86 91 91 86 87 86 81 77 75 71 70 70 63 57 50 53 50 46
112 103 105 99 104 105 99 107 113 88 115 118 101 66 44 64 82 89 99 103 106 101 94 86 80 72 77 82 77 79 81 84 81 80 73 64 62 52 47 38 35 28 22
126 114 110 111 106 119 134 130 129 115 86 88 88 63 21 31 63 72 88 96 98 106 101 99 94 78 65 57 46 36 36 50 68 72 72 57 41 30 19 8 359 358 335
136 131 118 127 123 105 125 132 130 131 123 114 117 120 78 352 349 358 42 105 103 104 100 112 106 94 85 65 24 9 354 341 327 326 338 340 335 329 336 323 318 329 326
149 144 137 131 140 138 169 171 159 148 164 191 141 137 150 201 250 307 328 352 146 109 106 142 138 144 140 106 358 309 313 305 293 291 292 280 288 286 286 293 297 301 311
174 171 166 158 160 161 179 199 179 169 165 181 204 88 158 153 166 234 291 295 277 219 223 232 206 204 206 212 237 269 278 282 271 276 279 287 291 284 282 284 284 282 287
212 203 193 184 185 185 190 192 201 208 183 188 185 172 123 76 155 173 225 261 286 267 255 252 233 224 225 226 234 248 264 271 269 268 274 279 284 286 287 289 287 281 278
238 232 223 211 210 206 207 208 205 212 213 206 203 194 182 178 188 177 200 225 251 264 267 252 232 223 229 229 237 249 258 264 267 270 269 274 277 279 281 281 283 285 284
247 238 231 226 226 225 222 215 217 222 220 220 216 216 212 215 192 189 190 214 245 268 264 247 232 225 232 231 237 250 258 262 264 268 269 271 274 274 274 274 275 279 283
236 229 227 228 232 233 232 222 229 226 221 222 226 223 224 226 207 200 192 186 243 268 249 248 247 227 229 232 247 254 257 263 268 270 271 274 274 270 268 268 269 271 273
243 233 229 233 236 236 233 228 237 235 225 223 224 223 228 232 224 216 205 193 194 230 243 233 230 228 230 240 254 259 258 264 266 268 271 271 273 271 266 264 265 266 267
252 243 239 240 242 241 236 235 242 244 231 229 225 219 225 227 224 223 219 215 210 215 239 228 229 245 248 254 258 260 260 267 268 268 268 268 269 267 267 265 262 262 263
254 250 248 248 249 248 242 239 239 240 234 233 230 224 226 221 223 223 223 222 222 216 239 257 249 246 234 244 257 256 256 259 260 263 264 265 268 268 266 263 262 262 263
258 254 252 252 253 253 248 241 240 239 236 234 232 227 229 226 223 223 223 227 228 223 229 251 257 245 240 236 240 247 253 253 253 259 262 262 262 264 268 266 263 262 262
265 261 254 251 250 249 247 246 243 241 241 237 233 229 227 222 228 227 225 228 230 235 230 240 253 249 249 241 243 255 254 250 252 255 257 258 261 263 265 264 265 265 261
270 262 259 255 253 251 249 247 246 243 245 243 240 236 230 224 226 224 228 227 225 226 229 235 246 249 248 238 230 243 257 246 252 253 252 257 261 262 263 265 267 267 262
277 270 265 265 262 255 249 245 244 243 244 244 243 242 241 237 234 230 231 223 218 223 226 233 243 249 246 235 232 231 247 254 256 242 245 254 257 256 258 262 263 263 264
278 276 267 263 263 265 263 256 253 246 246 244 245 246 247 245 243 243 243 239 229 225 225 229 238 239 240 234 232 234 239 248 259 226 229 258 245 250 249 250 260 262 265
280 275 271 265 264 267 269 264 258 254 249 246 244 246 251 248 246 241 245 246 243 240 235 230 233 237 234 227 223 232 232 239 248 232 226 255 245 254 251 254 259 260 261
280 275 274 268 266 270 272 269 265 258 252 251 246 244 246 247 245 245 244 241 239 239 237 235 235 237 233 223 219 228 233 243 263 245 221 245 245 250 256 251 254 256 260
285 278 276 271 267 273 274 270 266 258 255 256 252 247 245 242 247 249 246 245 244 246 248 243 241 241 241 237 228 222 222 231 254 249 214 225 243 259 258 248 247 253 257
281 282 281 275 269 270 275 271 265 252 254 258 255 252 253 252 252 249 241 240 243 244 240 244 244 245 241 237 233 222 219 225 241 248 212 211 231 238 261 252 239 248 254
Height
1539 1540 1541 1542 1543 1544 1545 1546 1547 1548 1549 1550 1551 1553 1554 1554 1555 1556 1557 1558 1558 1559 1559 1560 1560 1561 1561 1561 1561 1562 1562 1562 1562 1562 1563 1563 1563 1563 1563 1563 1563 1563 1563
1537 1538 1540 1540 1542 1543 1544 1545 1546 1547 1548 1549 1550 1551 1552 1553 1554 1555 1556 1557 1557 1558 1558 1559 1559 1560 1560 1560 1560 1561 1561 1561 1561 1561 1561 1561 1562 1562 1562 1562 1563 1562 1563
1536 1537 1538 1539 1540 1541 1542 1543 1544 1545 1547 1547 1549 1550 1551 1552 1553 1554 1554 1555 1556 1557 1557 1558 1558 1558 1559 1559 1559 1559 1559 1560 1560 1560 1560 1560 1561 1561 1561 1561 1561 1561 1561
1533 1534 1535 1536 1538 1539 1540 1541 1542 1544 1545 1546 1547 1548 1549 1550 1551 1552 1553 1554 1554 1555 1555 1556 1557 1557 1557 1558 1558 1558 1558 1558 1558 1559 1559 1559 1559 1559 1560 1560 1560 1560 1560
1531 1532 1533 1534 1535 1536 1538 1539 1540 1541 1543 1544 1545 1546 1547 1548 1549 1550 1551 1552 1552 1553 1554 1554 1555 1555 1556 1556 1556 1556 1556 1557 1557 1557 1557 1557 1557 1558 1558 1558 1558 1558 1558
1528 1530 1531 1531 1532 1534 1535 1536 1537 1539 1540 1542 1543 1544 1545 1546 1547 1548 1549 1550 1550 1551 1552 1552 1553 1553 1554 1554 1554 1554 1555 1555 1555 1555 1555 1555 1555 1555 1556 1556 1556 1556 1556
1526 1527 1528 1529 1530 1531 1532 1534 1534 1536 1537 1539 1540 1542 1543 1544 1545 1546 1546 1547 1548 1549 1549 1550 1550 1551 1551 1551 1552 1552 1552 1552 1553 1553 1553 1553 1553 1553 1553 1553 1554 1554 1554
1524 1524 1525 1526 1527 1528 1529 1530 1532 1532 1534 1535 1537 1538 1540 1542 1542 1542 1543 1544 1545 1546 1546 1547 1548 1548 1548 1549 1549 1549 1549 1550 1550 1550 1550 1550 1550 1550 1551 1551 1551 1551 1551
1520 1521 1522 1523 1524 1525 1526 1527 1529 1529 1530 1532 1533 1535 1536 1536 1538 1539 1539 1540 1541 1542 1543 1544 1544 1545 1545 1545 1546 1546 1546 1547 1547 1547 1547 1547 1547 1547 1548 1548 1548 1548 1548
1517 1518 1519 1519 1520 1521 1522 1523 1525 1526 1527 1528 1530 1531 1532 1532 1534 1534 1536 1536 1537 1538 1539 1540 1540 1541 1542 1542 1542 1542 1543 1543 1543 1543 1543 1544 1544 1544 1544 1544 1544 1545 1545
1514 1515 1515 1516 1517 1518 1518 1520 1521 1522 1524 1525 1525 1526 1528 1529 1529 1530 1530 1532 1533 1534 1535 1536 1536 1537 1538 1538 1538 1538 1539 1539 1539 1539 1540 1540 1540 1540 1540 1540 1540 1541 1541
1509 1511 1511 1512 1513 1514 1514 1515 1516 1518 1519 1521 1522 1522 1523 1524 1525 1525 1526 1526 1527 1529 1530 1531 1532 1532 1533 1533 1534 1534 1534 1535 1535 1535 1535 1536 1536 1536 1536 1536 1536 1536 1536
1505 1506 1507 1508 1509 1509 1510 1511 1512 1513 1514 1516 1517 1518 1519 1520 1521 1522 1522 1522 1523 1523 1524 1526 1527 1528 1528 1529 1529 1530 1530 1530 1530 1530 1531 1531 1531 1531 1531 1531 1531 1531 1532
1501 1502 1502 1503 1504 1505 1505 1506 1507 1508 1509 1510 1511 1513 1514 1515 1516 1517 1518 1519 1518 1518 1518 1519 1521 1522 1523 1524 1524 1525 1525 1525 1525 1525 1526 1526 1526 1526 1526 1526 1526 1526 1526
1496 1497 1498 1498 1499 1500 1500 1501 1502 1503 1504 1505 1506 1507 1508 1510 1511 1512 1513 1514 1515 1513 1512 1513 1515 1517 1518 1519 1519 1519 1519 1520 1520 1520 1520 1521 1521 1521 1521 1521 1521 1521 1521
1491 1491 1492 1493 1493 1494 1495 1495 1496 1497 1497 1498 1500 1501 1502 1504 1505 1506 1507 1508 1509 1509 1508 1507 1509 1511 1512 1513 1514 1514 1514 1514 1515 1515 1515 1515 1515 1515 1515 1515 1516 1516 1516
1486 1486 1486 1487 1487 1488 1488 1489 1490 1490 1491 1492 1493 1494 1495 1497 1498 1499 1501 1502 1503 1504 1502 1502 1504 1505 1506 1507 1507 1508 1508 1508 1508 1509 1509 1509 1510 1510 1510 1510 1510 1510 1509
1480 1480 1480 1481 1481 1481 1482 1482 1483 1484 1484 1485 1486 1487 1488 1490 1491 1493 1494 1495 1496 1497 1497 1496 1497 1499 1499 1500 1501 1501 1502 1502 1502 1503 1503 1503 1504 1504 1504 1503 1503 1503 1503
1474 1475 1475 1475 1475 1475 1475 1476 1476 1477 1478 1479 1479 1480 1481 1483 1484 1485 1487 1488 1489 1490 1491 1490 1490 1492 1493 1494 1494 1495 1495 1496 1496 1496 1497 1497 1497 1497 1497 1497 1497 1496 1496
1469 1469 1469 1469 1469 1469 1469 1469 1470 1470 1471 1472 1472 1473 1474 1475 1477 1478 1479 1481 1482 1483 1484 1484 1484 1485 1486 1487 1487 1487 1488 1489 1489 1490 1490 1490 1491 1491 1491 1491 1490 1489 1489
1463 1463 1463 1462 1463 1463 1463 1463 1463 1463 1464 1464 1465 1466 1467 1468 1469 1471 1472 1473 1475 1476 1476 1477 1477 1478 1479 1480 1480 1481 1482 1482 1482 1483 1483 1483 1484 1483 1483 1484 1483 1483 1482
1457 1457 1456 1456 1456 1456 1456 1456 1457 1457 1457 1457 1458 1459 1460 1461 1462 1464 1465 1466 1468 1469 1469 1470 1470 1470 1471 1473 1474 1475 1476 1475 1475 1476 1476 1476 1477 1476 1476 1477 1477 1477 1477
1451 1450 1450 1450 1449 1450 1450 1450 1450 1451 1450 1450 1451 1452 1452 1453 1455 1456 1457 1458 1460 1461 1462 1463 1462 1462 1464 1466 1468 1468 1469 1469 1468 1469 1470 1468 1469 1469 1470 1470 1470 1471 1470
1445 1444 1444 1443 1443 1443 1444 1444 1444 1444 1444 1444 1444 1445 1446 1446 1448 1449 1450 1450 1451 1452 1454 1455 1455 1456 1458 1460 1461 1462 1462 1462 1462 1463 1464 1462 1461 1462 1463 1463 1463 1464 1464
1439 1438 1437 1437 1436 1436 1437 1437 1437 1437 1437 1437 1437 1438 1439 1439 1441 1442 1443 1443 1443 1444 1446 1448 1449 1450 1451 1453 1454 1455 1455 1456 1454 1454 1457 1456 1455 1455 1455 1455 1456 1457 1458
1433 1432 1432 1431 1430 1430 1430 1430 1431 1431 1430 1430 1430 1431 1432 1432 1434 1435 1435 1435 1435 1436 1439 1440 1441 1442 1443 1445 1446 1448 1448 1449 1448 1448 1449 1450 1449 1450 1448 1448 1450 1450 1450